Regional Weather Roundup
Issued by NWS Charleston, WV

Home | Current Version | Previous Version | Graphics & Text | Print | Product List | Glossary On
Versions: 1 2 3 4 5 6 7 8 9 10 11 12 13 14 15 16 17 18 19 20 21 22 23 24 25 26 27 28 29 30 31 32 33 34 35 36 37 38 39 40 41 42 43 44 45 46 47 48 49 50
000
ASUS41 KRLX 300510
RWRRLX
West Virginia Regional Weather Roundup
National Weather Service Charleston WV
100 AM EDT SUN AUG 30 2015

Note: "fair" indicates few or no clouds below 12,000 feet with no
significant weather and/or obstructions to visibility.

WVZ003-300600-
Northern Panhandle of West Virginia

CITY           SKY/WX    TMP DP  RH WIND       PRES   REMARKS
WHEELING       PTCLDY    72  61  68 S6        30.10S
$$

WVZ009-300600-
Northwest West Virginia

CITY           SKY/WX    TMP DP  RH WIND       PRES   REMARKS
PARKERSBURG    CLEAR     67  64  90 CALM      30.12F
$$

WVZ006-300600-
Western West Virginia

CITY           SKY/WX    TMP DP  RH WIND       PRES   REMARKS
HUNTINGTON     CLOUDY    67  65  93 CALM      30.10F
$$

WVZ015-300600-
West Central West Virginia

CITY           SKY/WX    TMP DP  RH WIND       PRES   REMARKS
CHARLESTON     CLEAR     67  65  93 CALM      30.12S
$$

WVZ022-031-300600-
North Central West Virginia

CITY           SKY/WX    TMP DP  RH WIND       PRES   REMARKS
CLARKSBURG     CLEAR     63  60  90 CALM      30.13S
MORGANTOWN     CLEAR     66  60  81 S3        30.14S
$$

WVZ025-035-042-045-300600-
Southern West Virginia

CITY           SKY/WX    TMP DP  RH WIND       PRES   REMARKS
BECKLEY        PTCLDY    66  58  75 S5        30.22S
LOGAN            N/A     68  64  88 CALM      30.16S
BLUEFIELD      PTCLDY    68  56  65 SW3       30.24S
LEWISBURG      PTCLDY    63  61  93 CALM      30.22S FOG
$$

WVZ047-300600-
Northern Mountains of West Virginia

CITY           SKY/WX    TMP DP  RH WIND       PRES   REMARKS
ELKINS         CLEAR     58  56  93 CALM      30.20S
$$

WVZ052-300600-
Eastern Panhandle of West Virginia

CITY           SKY/WX    TMP DP  RH WIND       PRES   REMARKS
MARTINSBURG    PTCLDY    65  63  93 SE3       30.11S
PETERSBURG     CLEAR     63  62  96 CALM      30.15R
$$


USA.gov is the U.S. government's official web portal to all federal, state and local government web resources and services.